Location: Friaudour
(46.0460°N, 1.2873°E)
Time: 07:49:27
(UTC+00:00)

Okean 3 - Pass Details

Date: 14 July 2020
Orbit: 576 x 601 km, 82.5° (Epoch: 14 August)

Event Time Altitude Azimuth Distance (km) Brightness Sun altitude
Rises 01:50:11 0° 351° (N) 2,805 7.8 -17.9°
Reaches altitude 10° 01:52:23 10° 352° (N) 1,903 6.9 -17.8°
Maximum altitude 01:56:35 84° 81° (E) 591 3.4 -17.4°
Enters shadow 01:58:48 27° 168° (SSE) 1,122 4.5 -17.2°
